This demonstration page uses our WeatherBlox Daily Observations layout. Learn more.

Left ArrowRight Arrow

41.55636, -103.73856

Hourly Observations for December 28, 2019

Temp ( °F °C ) Dew Point ( °F °C ) Humidity (%) Winds ( mph kmh ) Pressure ( in mb ) Visibility ( mi km ) Precip ( " mm )
5:58 pm 17:58 Cloudy 33 0.3 28 -2.1 84 84 SE 5 7 29.91 1013 10 16 0.00 0.00
6:58 pm 18:58 Cloudy 32 -0.1 29 -1.8 88 88 SSE 7 11 29.89 1012 10 16 0.00 0.00
7:58 pm 19:58 Cloudy with Light Rain 31 -0.7 29 -1.4 95 95 SSE 5 7 29.88 1012 7 11 0.00 0.00
8:58 pm 20:58 Cloudy with Light Rain/Snow 31 -0.7 30 -1.1 97 97 ESE 6 9 29.85 1011 5 8 0.01 0.25
9:58 pm 21:58 Cloudy with Light Snow 30 -1.1 30 -1.3 99 99 ESE 6 9 29.85 1011 3 5 0.00 0.00
10:58 pm 22:58 Cloudy with Light Snow 30 -1.2 29 -1.4 99 99 ESE 5 7 29.83 1010 7 11 0.01 0.25
11:58 pm 23:58 Cloudy with Light Snow Showers 30 -1.1 29 -1.5 97 97 N 6 9 29.80 1009 2 3 0.00 0.00
12:58 am 00:58 Mostly Cloudy with Freezing Fog 29 -1.6 29 -1.8 99 99 Calm 29.81 1010 3 5 0.00 0.00
1:58 am 01:58 Mostly Cloudy with Light Snow Showers 29 -1.5 29 -1.6 99 99 Calm 29.79 1009 1 1 0.01 0.25
2:58 am 02:58 Mostly Cloudy with Light Snow 29 -1.5 29 -1.7 99 99 NNW 6 9 29.78 1009 1 2 0.01 0.25
3:58 am 03:58 Cloudy with Light Snow 29 -1.7 29 -1.9 99 99 NNW 7 11 29.77 1008 5 8 0.00 0.00
4:58 am 04:58 Cloudy with Light Snow 29 -1.4 29 -1.5 99 99 N 9 15 29.79 1009 4 6 0.00 0.00
5:58 am 05:58 Cloudy with Light Snow 26 -3.1 26 -3.3 99 99 NW 15 24 29.81 1010 3 4 0.00 0.00
6:58 am 06:58 Cloudy with Light Snow 27 -3 25 -3.7 95 95 N 14 22 29.83 1010 3 5 0.00 0.00
7:58 am 07:58 Cloudy with Light Snow 25 -3.9 24 -4.4 96 96 NNW 13 20 29.85 1011 2 4 0.00 0.00
8:59 am 08:59 Cloudy with Light Snow 25 -4 24 -4.7 95 95 NNW 15 24 29.88 1012 5 8 0.00 0.00
9:59 am 09:59 Windy with Snow Likely 25 -3.7 24 -4.7 93 93 N 20 31 29.91 1013 10 16 0.00 0.00
10:58 am 10:58 Windy with Snow Likely 24 -4.2 22 -5.4 91 91 N 22 35 29.91 1013 2 3 0.00 0.00
11:58 am 11:58 Windy with Snow Likely 24 -4.4 22 -5.6 91 91 N 23 37 29.91 1013 1 2 0.00 0.00
12:59 pm 12:59 Mostly Cloudy with Snow 24 -4.5 22 -5.3 94 94 N 17 28 29.91 1013 1 1 0.00 0.00
1:58 pm 13:58 Cloudy with Snow 24 -4.5 22 -5.7 91 91 N 18 30 29.90 1013 1 1 0.00 0.00
2:59 pm 14:59 Windy with Snow Likely 23 -4.8 21 -6 91 91 NNW 23 37 29.91 1013 1 2 0.00 0.00
3:58 pm 15:58 Mostly Cloudy with Light Snow 23 -5 19 -7 86 86 NNW 22 35 29.91 1013 3 5 0.00 0.00
4:58 pm 16:58 Mostly Cloudy with Light Snow 22 -5.4 19 -7 89 89 NNW 22 35 29.93 1014 6 10 0.00 0.00

Powered by AerisWeather